OE6JUE Weather Reports


time (UTC)temp
C
wind
direction
speed
KPH
gust
KPH
rain 1hr
cm
rain 24hr
cm
rain mn
cm
humidity
%
barometer
mb
20260906023400 15 315 1.6 3.2 0.00 0.28 0.00 99 1025.8
20260906022901 15 225 0.0 3.2 0.00 0.28 0.00 99 1025.7
20260906022401 15 315 0.0 1.6 0.00 0.28 0.00 99 1025.7
20260906021901 15 315 0.0 0.0 0.00 0.28 0.00 99 1025.7
20260906021400 15 315 0.0 0.0 0.00 0.28 0.00 99 1025.7
20260906020900 15 315 1.6 4.8 0.00 0.28 0.00 99 1025.8
20260906020400 15 315 1.6 4.8 0.00 0.28 0.00 99 1025.8
20260906015900 15 225 0.0 3.2 0.00 0.28 0.00 99 1025.6
20260906015400 15 270 3.2 6.4 0.00 0.28 0.00 99 1025.5
20260906014901 15 225 1.6 4.8 0.00 0.28 0.00 99 1025.6
20260906014400 15 225 1.6 4.8 0.00 0.28 0.00 99 1025.5
20260906013901 15 270 0.0 3.2 0.00 0.28 0.00 99 1025.4
20260906013400 15 270 0.0 3.2 0.00 0.28 0.00 99 1025.4
20260906012900 15 225 0.0 0.0 0.00 0.28 0.00 99 1025.3
20260906012400 15 225 0.0 3.2 0.00 0.28 0.00 99 1025.2
20260906011900 15 225 1.6 3.2 0.00 0.28 0.00 99 1025.3
20260906011400 15 225 1.6 3.2 0.00 0.28 0.00 99 1025.3
20260906010900 15 270 0.0 0.0 0.00 0.28 0.00 99 1025.3
20260906010400 15 225 0.0 0.0 0.00 0.28 0.00 99 1025.2
20260906005900 15 180 0.0 0.0 0.00 8.84 0.00 99 1025.3
20260906005400 15 225 1.6 3.2 0.00 8.84 0.00 99 1025.4
20260906004901 15 315 0.0 3.2 0.00 8.84 0.00 99 1025.1
20260906004400 15 225 0.0 1.6 0.00 8.84 0.00 99 1025.2
20260906003900 15 180 0.0 0.0 0.00 8.84 0.00 99 1025.2
20260906003400 14 225 0.0 3.2 0.00 8.84 0.00 99 1025.1
20260906002900 15 315 1.6 3.2 0.00 8.84 0.00 99 1025.3
20260906002400 15 225 1.6 3.2 0.00 8.84 0.00 99 1025.2
20260906001900 15 225 0.0 3.2 0.00 8.84 0.00 99 1025.3
20260906001400 15 225 0.0 3.2 0.00 8.84 0.00 99 1025.3
20260906000900 14 225 0.0 3.2 0.00 8.84 0.00 99 1025.2
20260906000400 13 360 0.0 3.2 0.00 8.84 0.00 99 1025.1
20260905235900 14 180 0.0 1.6 0.00 8.84 0.00 99 1025.3
20260905235400 14 315 1.6 4.8 0.00 8.84 0.00 99 1025.1
20260905234900 15 270 0.0 3.2 0.00 8.84 0.00 99 1025.2
20260905234400 15 135 1.6 3.2 0.00 8.84 0.00 99 1024.8
20260905233900 15 270 1.6 4.8 0.00 8.84 0.00 99 1025.0
20260905233400 14 90 0.0 3.2 0.00 8.84 0.00 99 1024.9
20260905232900 14 225 0.0 3.2 0.00 8.84 0.00 99 1024.9
20260905232400 14 315 1.6 3.2 0.00 8.84 0.00 99 1024.9
20260905231900 14 225 0.0 0.0 0.00 8.84 0.00 99 1025.0
20260905231400 14 225 0.0 0.0 0.00 8.84 0.00 99 1024.9
20260905230900 14 225 0.0 0.0 0.00 8.84 0.00 99 1024.9
20260905230401 14 180 0.0 0.0 0.00 8.84 0.00 99 1024.9
20260905225900 14 180 0.0 0.0 0.00 0.00 0.00 99 1024.7
20260905225400 14 270 0.0 0.0 0.00 0.00 0.00 99 1024.8
20260905224900 14 270 0.0 0.0 0.00 0.00 0.00 99 1024.8
20260905224400 15 225 0.0 3.2 0.00 0.00 0.00 99 1024.7
20260905223900 15 225 1.6 3.2 0.00 0.00 0.00 99 1024.6
20260905223400 15 270 0.0 0.0 0.00 0.00 0.00 99 1024.7
20260905222900 15 270 0.0 0.0 0.00 0.00 0.00 99 1024.7
20260905222400 15 270 0.0 3.2 0.00 0.00 0.00 99 1024.8
20260905221900 15 270 0.0 0.0 0.00 0.00 0.00 99 1024.8
20260905221359 15 270 0.0 3.2 0.00 0.00 0.00 99 1024.8
20260905220900 15 180 0.0 1.6 0.00 0.00 0.00 99 1024.9
20260905220401 15 360 0.0 0.0 0.00 0.00 0.00 99 1024.7
20260905215900 15 180 0.0 1.6 0.00 0.28 0.00 99 1024.6
20260905215405 15 315 1.6 6.4 0.00 0.28 0.00 99 1024.6
20260905214900 15 315 0.0 1.6 0.00 0.28 0.00 99 1024.4
20260905214359 15 225 0.0 3.2 0.00 0.28 0.00 99 1024.6
20260905213900 15 225 0.0 3.2 0.00 0.28 0.00 99 1024.6
20260905213400 15 360 0.0 0.0 0.00 0.28 0.00 99 1024.5
20260905212900 15 360 0.0 0.0 0.00 0.28 0.00 99 1024.5
20260905212400 15 315 0.0 0.0 0.00 0.28 0.00 99 1024.5
20260905211900 15 315 0.0 0.0 0.00 0.28 0.00 99 1024.5
20260905211400 16 225 1.6 4.8 0.00 0.28 0.00 99 1024.5
20260905210900 16 225 1.6 4.8 0.00 0.28 0.00 99 1024.4
20260905210400 16 225 0.0 3.2 0.00 0.28 0.00 99 1024.4
20260905205900 16 135 1.6 3.2 0.00 0.28 0.00 99 1024.4
20260905205359 16 225 0.0 1.6 0.00 0.28 0.00 99 1024.4
20260905204900 16 315 1.6 3.2 0.00 0.28 0.00 99 1024.3
20260905204359 16 315 1.6 3.2 0.00 0.28 0.00 99 1024.3
20260905203859 16 180 0.0 3.2 0.00 0.28 0.00 99 1024.2
20260905203400 16 180 0.0 3.2 0.00 0.28 0.00 99 1024.2
20260905202900 16 135 0.0 3.2 0.00 0.28 0.00 99 1024.1
20260905202359 16 315 1.6 3.2 0.00 0.28 0.00 99 1024.1
20260905201900 16 270 1.6 3.2 0.00 0.28 0.00 99 1024.2
20260905201359 16 225 0.0 0.0 0.00 0.28 0.00 99 1024.1
20260905200900 16 180 1.6 3.2 0.00 0.28 0.00 99 1024.0
20260905200400 16 180 1.6 3.2 0.00 0.28 0.00 99 1024.0
20260905195859 16 270 0.0 0.0 0.00 0.28 0.00 99 1024.0
20260905195359 16 135 0.0 0.0 0.00 0.28 0.00 99 1023.9
20260905194859 16 315 0.0 0.0 0.00 0.28 0.00 99 1023.8
20260905194359 16 90 0.0 0.0 0.00 0.28 0.00 99 1023.7
20260905193859 17 315 1.6 6.4 0.00 0.28 0.00 99 1023.8
20260905193400 17 135 1.6 3.2 0.00 0.28 0.00 99 1023.6
20260905192859 17 360 1.6 4.8 0.00 0.28 0.00 99 1023.7
20260905192359 17 225 1.6 6.4 0.00 0.28 0.00 99 1023.5
20260905191859 17 135 0.0 1.6 0.00 0.28 0.00 99 1023.7
20260905191359 17 270 1.6 4.8 0.00 0.28 0.00 99 1023.5
20260905190859 17 270 1.6 3.2 0.00 0.28 0.00 99 1023.3
20260905190400 17 135 0.0 0.0 0.00 0.28 0.00 99 1023.3
20260905185859 17 135 0.0 0.0 0.00 0.28 0.00 99 1023.2
20260905185359 17 270 1.6 3.2 0.00 0.28 0.00 98 1023.2
20260905184859 17 270 1.6 3.2 0.00 0.28 0.00 98 1023.2
20260905184359 17 180 0.0 0.0 0.00 0.28 0.00 98 1023.2
20260905183859 17 338 1.6 4.8 0.00 0.28 0.00 95 1022.9
20260905183359 17 90 0.0 3.2 0.00 0.28 0.00 95 1023.0
20260905182859 17 225 1.6 3.2 0.00 0.28 0.00 95 1022.7
20260905182359 17 180 0.0 3.2 0.00 0.28 0.00 95 1022.6
20260905181859 17 225 0.0 3.2 0.00 0.28 0.00 94 1022.7
20260905181359 18 180 0.0 1.6 0.00 0.28 0.00 94 1022.6
20260905180859 18 315 0.0 3.2 0.00 0.28 0.00 94 1022.5
20260905180359 18 315 0.0 0.0 0.00 0.28 0.00 94 1022.5
20260905175859 18 225 1.6 4.8 0.00 0.28 0.00 93 1022.5
20260905175359 18 225 0.0 0.0 0.00 0.28 0.00 92 1022.5
20260905174859 18 270 0.0 0.0 0.00 0.28 0.00 92 1022.3
20260905174400 18 225 1.6 3.2 0.00 0.28 0.00 91 1022.1
20260905173859 18 180 0.0 0.0 0.00 0.28 0.00 91 1022.1
20260905173359 18 180 0.0 3.2 0.00 0.28 0.00 91 1022.0
20260905172859 18 270 0.0 1.6 0.00 0.28 0.00 91 1022.0
20260905172359 18 225 0.0 3.2 0.00 0.28 0.00 90 1022.0
20260905171859 19 225 1.6 3.2 0.00 0.28 0.00 90 1022.0
20260905171359 19 225 1.6 3.2 0.00 0.28 0.00 90 1022.0
20260905170859 19 225 1.6 4.8 0.00 0.28 0.00 89 1021.9
20260905170359 19 270 0.0 3.2 0.00 0.28 0.00 89 1021.9
20260905165859 19 225 1.6 4.8 0.00 0.28 0.00 88 1021.8
20260905165359 19 225 1.6 3.2 0.00 0.28 0.00 87 1021.8
20260905164859 20 225 1.6 3.2 0.00 0.28 0.00 86 1021.8
20260905164359 20 225 1.6 3.2 0.00 0.28 0.00 85 1021.6
20260905163859 20 225 1.6 3.2 0.00 0.28 0.00 84 1021.7
20260905163359 20 225 1.6 3.2 0.00 0.28 0.00 83 1021.4
20260905162859 20 225 1.6 3.2 0.00 0.28 0.00 83 1021.4
20260905162359 20 180 1.6 3.2 0.00 0.28 0.00 81 1021.4
20260905161859 20 180 1.6 3.2 0.00 0.28 0.00 81 1021.4
20260905161359 20 225 0.0 3.2 0.00 0.28 0.00 78 1021.5
20260905160858 21 225 0.0 3.2 0.00 0.28 0.00 72 1021.4
20260905160359 21 270 1.6 3.2 0.00 0.28 0.00 71 1021.5
20260905155859 23 270 1.6 3.2 0.00 0.28 0.00 63 1021.4
20260905155359 24 180 1.6 4.8 0.00 0.28 0.00 61 1021.4
20260905154859 24 135 1.6 3.2 0.00 0.28 0.00 62 1021.3
20260905154359 24 225 1.6 6.4 0.00 0.28 0.00 61 1021.4
20260905153859 24 180 0.0 3.2 0.00 0.28 0.00 62 1021.4
20260905153359 24 225 0.0 3.2 0.00 0.28 0.00 63 1021.5
20260905152859 24 180 1.6 4.8 0.00 0.28 0.00 60 1021.5
20260905152359 24 180 1.6 4.8 0.00 0.28 0.00 60 1021.5
20260905151859 24 270 0.0 3.2 0.00 0.28 0.00 61 1021.4
20260905151359 24 225 1.6 4.8 0.00 0.28 0.00 62 1021.5
20260905150859 23 225 1.6 3.2 0.00 0.28 0.00 62 1021.4
20260905150359 24 270 1.6 3.2 0.00 0.28 0.00 63 1021.4
20260905145859 23 180 1.6 3.2 0.00 0.28 0.00 64 1021.5
20260905145359 22 45 1.6 3.2 0.00 0.28 0.00 70 1021.5
20260905144859 22 270 1.6 3.2 0.00 0.28 0.00 67 1021.5
20260905144358 23 180 1.6 3.2 0.00 0.28 0.00 61 1021.6
20260905143858 25 135 0.0 1.6 0.00 0.28 0.00 60 1021.6
20260905143359 25 180 1.6 3.2 0.00 0.28 0.00 61 1021.7
20260905142859 24 360 1.6 3.2 0.00 0.28 0.00 65 1021.6
20260905142358 23 135 0.0 3.2 0.00 0.28 0.00 70 1021.7
20260905141859 22 180 0.0 3.2 0.00 0.28 0.00 73 1021.7
20260905141358 21 270 0.0 1.6 0.00 0.28 0.00 72 1022.0
20260905140859 21 270 0.0 3.2 0.00 0.28 0.00 73 1021.9
20260905140359 21 158 1.6 4.8 0.00 0.28 0.00 74 1021.8
20260905135858 20 270 3.2 6.4 0.00 0.28 0.00 75 1021.9
20260905135358 20 315 1.6 3.2 0.00 0.28 0.00 75 1021.8
20260905134858 20 180 1.6 6.4 0.00 0.28 0.00 75 1021.7
20260905134358 21 135 3.2 6.4 0.00 0.28 0.00 74 1021.8
20260905133859 21 135 1.6 6.4 0.00 0.28 0.00 74 1021.9
20260905133359 21 135 3.2 9.7 0.00 0.28 0.00 73 1022.0
20260905132859 21 135 3.2 6.4 0.00 0.28 0.00 75 1022.1
20260905132358 21 135 3.2 8.0 0.00 0.28 0.00 79 1022.1
20260905131858 21 135 3.2 8.0 0.03 0.28 0.00 79 1022.1
20260905131359 20 225 1.6 3.2 0.03 0.28 0.00 77 1022.0
20260905130859 20 225 1.6 3.2 0.03 0.28 0.00 77 1022.0
20260905130358 20 225 0.0 3.2 0.03 0.28 0.00 79 1022.1
20260905125858 20 225 1.6 3.2 0.03 0.28 0.00 79 1022.1
20260905125358 20 270 0.0 3.2 0.03 0.28 0.00 82 1021.9
20260905124859 20 315 1.6 6.4 0.03 0.28 0.00 86 1022.1
20260905124358 20 225 1.6 3.2 0.05 0.28 0.00 86 1022.0
20260905123858 20 180 0.0 3.2 0.05 0.28 0.00 87 1022.1
20260905123359 19 180 1.6 3.2 0.05 0.28 0.00 87 1022.0
20260905122858 19 225 1.6 3.2 0.10 0.28 0.00 88 1022.2
20260905122359 19 315 0.0 3.2 0.13 0.23 0.00 89 1022.1
20260905121859 19 158 0.0 3.2 0.23 0.23 0.00 89 1022.4
20260905121358 18 270 1.6 3.2 0.23 0.23 0.00 88 1022.4
20260905120903 18 270 1.6 3.2 0.23 0.23 0.00 88 1022.4
20260905120358 18 270 1.6 4.8 0.23 0.23 0.00 86 1022.4
20260905115858 18 225 0.0 3.2 0.23 0.23 0.00 85 1022.5
20260905115358 18 270 0.0 3.2 0.23 0.23 0.00 84 1022.4
20260905114858 18 180 1.6 6.4 0.20 0.20 0.00 83 1022.4
20260905114358 18 225 1.6 6.4 0.20 0.20 0.00 81 1022.5
20260905113858 19 225 1.6 6.4 0.20 0.20 0.00 76 1022.4
20260905113358 20 270 1.6 6.4 0.18 0.18 0.00 72 1022.3
20260905112858 21 45 1.6 4.8 0.13 0.13 0.00 60 1022.0
20260905112358 22 45 1.6 3.2 0.00 0.00 0.00 55 1022.3
20260905111859 22 270 1.6 3.2 0.00 0.00 0.00 51 1022.5
20260905111358 22 225 0.0 1.6 0.00 0.00 0.00 49 1022.0
20260905110858 23 45 1.6 3.2 0.00 0.00 0.00 48 1021.8
20260905110358 23 180 1.6 6.4 0.00 0.00 0.00 48 1021.8
20260905105858 24 135 3.2 6.4 0.00 0.00 0.00 47 1021.8
20260905105358 24 90 1.6 4.8 0.00 0.00 0.00 47 1021.7
20260905104858 24 180 3.2 9.7 0.00 0.00 0.00 47 1021.7
20260905104359 24 90 3.2 6.4 0.00 0.00 0.00 48 1021.7
20260905103858 23 45 1.6 6.4 0.00 0.00 0.00 50 1021.7
20260905103358 23 135 3.2 8.0 0.00 0.00 0.00 50 1021.7
20260905102858 23 180 1.6 8.0 0.00 0.00 0.00 49 1021.9
20260905102358 23 135 3.2 6.4 0.00 0.00 0.00 47 1021.8
20260905101858 23 158 3.2 9.7 0.00 0.00 0.00 48 1021.7
20260905101358 23 135 1.6 6.4 0.00 0.00 0.00 46 1021.8
20260905100859 24 158 4.8 14.5 0.00 0.00 0.00 46 1021.7
20260905100358 25 90 1.6 4.8 0.00 0.00 0.00 45 1021.8
20260905095859 25 90 1.6 6.4 0.00 0.00 0.00 46 1021.7
20260905095358 24 180 3.2 11.3 0.00 0.00 0.00 48 1021.6
20260905094858 24 135 3.2 9.7 0.00 0.00 0.00 45 1021.6
20260905094358 25 135 1.6 6.4 0.00 0.00 0.00 44 1021.7
20260905093858 25 45 1.6 3.2 0.00 0.00 0.00 47 1021.6
20260905093358 25 135 4.8 12.9 0.00 0.00 0.00 48 1021.8
20260905092858 24 90 3.2 12.9 0.00 0.00 0.00 49 1021.7
20260905092358 23 135 3.2 11.3 0.00 0.00 0.00 51 1021.7
20260905091858 23 135 4.8 12.9 0.00 0.00 0.00 50 1021.5
20260905091358 23 135 4.8 11.3 0.00 0.00 0.00 51 1021.4
20260905090858 23 90 4.8 12.9 0.00 0.00 0.00 52 1021.3
20260905090358 23 135 1.6 3.2 0.00 0.00 0.00 53 1021.2
20260905085858 23 45 3.2 6.4 0.00 0.00 0.00 53 1021.2
20260905085359 23 45 1.6 6.4 0.00 0.00 0.00 58 1021.1
20260905084858 22 180 1.6 4.8 0.00 0.00 0.00 61 1021.1
20260905084358 22 180 1.6 6.4 0.00 0.00 0.00 63 1021.0
20260905083858 22 180 0.0 3.2 0.00 0.00 0.00 66 1020.9
20260905083358 21 90 3.2 8.0 0.00 0.00 0.00 67 1020.6
20260905082858 21 180 1.6 6.4 0.00 0.00 0.00 69 1020.8
20260905082358 21 90 3.2 8.0 0.00 0.00 0.00 71 1020.6
20260905081858 21 90 1.6 6.4 0.00 0.00 0.00 73 1020.6
20260905081357 21 45 1.6 6.4 0.00 0.00 0.00 74 1020.4
20260905080858 21 135 0.0 3.2 0.00 0.00 0.00 75 1020.1
20260905080358 21 180 0.0 3.2 0.00 0.00 0.00 75 1020.0
20260905075857 21 135 0.0 1.6 0.00 0.00 0.00 75 1020.1
20260905075358 20 90 0.0 3.2 0.00 0.00 0.00 75 1019.8
20260905074857 20 90 0.0 3.2 0.00 0.00 0.00 75 1019.8
20260905074357 20 270 1.6 3.2 0.00 0.00 0.00 75 1019.3
20260905073858 21 135 1.6 6.4 0.00 0.00 0.00 75 1019.5
20260905073358 21 180 0.0 0.0 0.00 0.00 0.00 75 1019.1
20260905072857 21 180 0.0 0.0 0.00 0.00 0.00 75 1019.1
20260905072357 21 180 0.0 0.0 0.00 0.00 0.00 75 1018.9
20260905071858 21 225 0.0 1.6 0.00 0.00 0.00 75 1018.7
20260905071358 21 180 0.0 1.6 0.00 0.00 0.00 75 1018.6
20260905070858 21 180 0.0 3.2 0.00 0.00 0.00 76 1018.5
20260905070357 20 135 1.6 3.2 0.00 0.00 0.00 77 1018.4
20260905065858 20 180 0.0 3.2 0.00 0.00 0.00 77 1018.4
20260905065358 20 180 1.6 3.2 0.00 0.00 0.00 78 1018.4
20260905064858 20 360 0.0 0.0 0.00 0.00 0.00 79 1018.3
20260905064358 20 360 0.0 0.0 0.00 0.00 0.00 79 1018.3
20260905063857 20 315 0.0 1.6 0.00 0.00 0.00 79 1018.2
20260905063357 20 180 0.0 0.0 0.00 0.00 0.00 79 1018.3
20260905062857 19 270 0.0 3.2 0.00 0.00 0.00 78 1018.2
20260905062357 20 180 0.0 0.0 0.00 0.00 0.00 79 1018.1
20260905061857 20 225 0.0 0.0 0.00 0.00 0.00 80 1018.0
20260905061358 19 225 0.0 0.0 0.00 0.00 0.00 80 1018.1
20260905060857 19 225 0.0 0.0 0.00 0.00 0.00 80 1018.1
20260905060358 19 225 0.0 0.0 0.00 0.00 0.00 80 1018.0
20260905055858 19 225 0.0 0.0 0.00 0.00 0.00 80 1018.0
20260905055357 19 360 1.6 3.2 0.00 0.00 0.00 80 1017.8
20260905054857 19 270 1.6 3.2 0.00 0.00 0.00 81 1017.8
20260905054357 19 45 1.6 4.8 0.00 0.00 0.00 82 1017.6
20260905053858 20 360 0.0 0.0 0.00 0.00 0.00 85 1017.5
20260905053357 20 360 0.0 0.0 0.00 0.00 0.00 85 1017.5
20260905052857 18 360 0.0 0.0 0.00 0.00 0.00 91 1017.4
20260905052357 17 360 0.0 0.0 0.00 0.00 0.00 91 1017.4
20260905051858 16 225 0.0 0.0 0.00 0.00 0.00 93 1017.4
20260905051357 16 225 0.0 0.0 0.00 0.00 0.00 93 1017.4
20260905050858 16 180 0.0 0.0 0.00 0.00 0.00 92 1017.2
20260905050358 16 225 0.0 0.0 0.00 0.00 0.00 92 1017.2
20260905045857 16 225 0.0 0.0 0.00 0.00 0.00 93 1017.2
20260905045358 15 225 0.0 0.0 0.00 0.00 0.00 93 1017.2
20260905044857 15 225 0.0 0.0 0.00 0.00 0.00 93 1017.2
20260905044357 15 180 0.0 0.0 0.00 0.00 0.00 93 1017.0
20260905043857 15 180 0.0 0.0 0.00 0.00 0.00 93 1017.0
20260905043357 15 180 0.0 0.0 0.00 0.00 0.00 93 1016.8
20260905042858 15 180 0.0 0.0 0.00 0.00 0.00 93 1016.9
20260905042357 15 360 1.6 3.2 0.00 0.00 0.00 93 1016.8
20260905041857 15 225 1.6 3.2 0.00 0.00 0.00 92 1016.9
20260905041357 15 270 0.0 0.0 0.00 0.00 0.00 92 1016.8
20260905040858 15 270 0.0 0.0 0.00 0.00 0.00 92 1016.8
20260905040357 15 270 0.0 0.0 0.00 0.00 0.00 92 1016.7
20260905035857 15 225 0.0 0.0 0.00 0.00 0.00 91 1016.6
20260905035357 15 180 0.0 0.0 0.00 0.00 0.00 91 1016.7
20260905034857 15 180 0.0 0.0 0.00 0.00 0.00 91 1016.7
20260905034357 15 270 0.0 3.2 0.00 0.00 0.00 91 1016.5
20260905033857 15 225 0.0 0.0 0.00 0.00 0.00 90 1016.5
20260905033357 15 180 0.0 0.0 0.00 0.00 0.00 90 1016.6
20260905032857 15 180 0.0 0.0 0.00 0.00 0.00 90 1016.6
20260905032357 15 270 0.0 0.0 0.00 0.00 0.00 90 1016.4
20260905031857 15 270 0.0 0.0 0.00 0.00 0.00 90 1016.4
20260905031357 15 135 0.0 0.0 0.00 0.00 0.00 90 1016.3
20260905030857 15 135 0.0 0.0 0.00 0.00 0.00 90 1016.3
20260905030357 16 360 3.2 6.4 0.00 0.00 0.00 89 1016.1
20260905025857 16 45 0.0 0.0 0.00 0.00 0.00 89 1016.1
20260905025357 16 180 0.0 3.2 0.00 0.00 0.00 90 1016.1
20260905024857 16 180 0.0 3.2 0.00 0.00 0.00 90 1016.1
20260905024357 16 180 0.0 0.0 0.00 0.00 0.00 89 1016.0
20260905023857 16 225 0.0 1.6 0.00 0.00 0.00 90 1016.1